星链-5105 (STARLINK-5105 )

导读 | 豆包AI

STARLINK-5105是美国太空探索技术公司(SpaceX)研制的商业通信卫星,属于星链互联网星座,于北京时间2022年10月5日由猎鹰9号火箭从美国空军西部试验靶场发射升空。卫星整星质量305千克,干重约290千克,运行于近地轨道,倾角53.21°,轨道周期约87.8分钟。该卫星已于2024年再入大气层烧毁,旨在为全球提供高速互联网接入服务。

基本信息
目录编号:
54001
目录名称:
STARLINK-5105
国际标识:
2022-125AP
轨道中心:
EARTH
卫星名称:
星链-5105
卫星全名:
星链-5105 (STARLINK-5105 )
卫星状态:
已陨落 最后检测时间 2024-05-15
发射日期:
2022-10-05 UTC
国别 :
美国 (US)
星等 :
--
轨道信息
数据来源 国际轨道数据
星历时间: 2024-05-16T11:23:31+0800
轨道信息已过期713天
半长轴: 6541.781km
偏心率: 0.0004196
轨道倾角: 53.211°
近地点辐角 312.530°
升交点赤经 280.785°
平近点角 191.991°
近地点: 160.901km
远地点: 166.391km
周期: 87.761分钟
每日圈数: 16.408121
详细信息
固有亮度:
5
最大亮度:
2.5
卫星平台:
Starlink v1.5
覆盖范围:
全球
运营商:
太空探索技术公司
运营商所在国:
美国
制造商(研发单位):
太空探索技术公司
制造商所在国:
美国
使用方式:
暂无
卫星简介
星链(Starlink)计划是由太空探索技术公司(SpaceX)提出的一个巨型低轨卫星互联网星座项目,计划在2019年至2024年间在太空搭建由约1.2万颗卫星组成的“星链”网络,其中1584颗将部署在地球上空550千米处的近地轨道,并从2020年开始工作。该卫星已陨落。